• En España
  • Lista de países
  • Para 7 días
  • Temperatura del agua
  • Mapa Satelital
  • El tiempo en el mapa
  • Informadores
  • user-avatar
    Iniciar sesión

    Tiempo cada hora Shemenermuchash

    Hoy, 18 Junio, Lunes

    Tiempo Temperatura Precipitaciones Viento Presión Humedad
    00:00 +13°C° 0 mm 2 mps 746 mmHg 81%
    01:00 +12°C° 0 mm 2 mps 746 mmHg 82%
    02:00 +12°C° 0 mm 2 mps 746 mmHg 83%
    03:00 +11°C° 0 mm 1 mps 746 mmHg 86%
    04:00 +13°C° 0 mm 1 mps 746 mmHg 82%
    05:00 +14°C° 0 mm 2 mps 746 mmHg 79%
    06:00 +16°C° 0 mm 2 mps 746 mmHg 76%
    07:00 +17°C° 0 mm 2 mps 746 mmHg 71%
    08:00 +19°C° 0 mm 3 mps 746 mmHg 66%
    09:00 +21°C° 0 mm 3 mps 745 mmHg 59%
    10:00 +22°C° 0 mm 3 mps 745 mmHg 54%
    11:00 +23°C° 0 mm 4 mps 745 mmHg 49%
    12:00 +25°C° 0 mm 4 mps 745 mmHg 44%
    13:00 +25°C° 0 mm 4 mps 745 mmHg 45%
    14:00 +25°C° 0 mm 4 mps 745 mmHg 45%
    15:00 +26°C° 0 mm 4 mps 744 mmHg 46%
    16:00 +25°C° 0 mm 3 mps 744 mmHg 51%
    17:00 +25°C° 0 mm 3 mps 744 mmHg 56%
    18:00 +24°C° 0 mm 2 mps 744 mmHg 62%
    19:00 +21°C° 0 mm 2 mps 744 mmHg 67%
    20:00 +20°C° 0 mm 2 mps 744 mmHg 71%
    21:00 +18°C° 0 mm 2 mps 744 mmHg 76%
    22:00 +17°C° 0 mm 2 mps 744 mmHg 78%
    23:00 +16°C° 0 mm 2 mps 744 mmHg 80%

    Mañana, 19 Junio, Martes

    Tiempo Temperatura Precipitaciones Viento Presión Humedad
    00:00 +15°C° 0 mm 2 mps 744 mmHg 82%
    01:00 +15°C° 0 mm 2 mps 744 mmHg 82%
    02:00 +15°C° 0 mm 2 mps 744 mmHg 81%
    03:00 +14°C° 0 mm 2 mps 744 mmHg 80%
    04:00 +15°C° 0 mm 2 mps 744 mmHg 78%
    05:00 +16°C° 0 mm 2 mps 744 mmHg 77%
    06:00 +17°C° 0 mm 2 mps 744 mmHg 76%
    07:00 +18°C° 0 mm 2 mps 744 mmHg 75%
    08:00 +19°C° 0 mm 2 mps 744 mmHg 74%
    09:00 +20°C° 0 mm 2 mps 744 mmHg 73%
    10:00 +22°C° 0 mm 3 mps 744 mmHg 64%
    11:00 +25°C° 0 mm 3 mps 744 mmHg 55%
    12:00 +26°C° 0 mm 3 mps 744 mmHg 46%
    13:00 +26°C° 0 mm 3 mps 744 mmHg 48%
    14:00 +26°C° 0 mm 3 mps 743 mmHg 49%
    15:00 +26°C° 0 mm 3 mps 743 mmHg 51%
    16:00 +26°C° 0 mm 3 mps 743 mmHg 55%
    17:00 +25°C° 0 mm 3 mps 743 mmHg 60%
    18:00 +24°C° 0 mm 2 mps 743 mmHg 65%
    19:00 +23°C° 0 mm 2 mps 742 mmHg 69%
    20:00 +20°C° 0 mm 2 mps 742 mmHg 73%
    21:00 +18°C° 0 mm 2 mps 742 mmHg 77%
    22:00 +18°C° 0 mm 2 mps 742 mmHg 79%
    23:00 +17°C° 0 mm 3 mps 742 mmHg 81%

    Pasado mañana, 20 Junio, Miércoles

    Tiempo Temperatura Precipitaciones Viento Presión Humedad
    00:00 +16°C° 0 mm 3 mps 741 mmHg 83%
    01:00 +16°C° 0,1 mm 3 mps 741 mmHg 86%
    02:00 +16°C° 0,1 mm 3 mps 741 mmHg 89%
    03:00 +16°C° 0,1 mm 3 mps 740 mmHg 92%
    04:00 +15°C° 0 mm 4 mps 740 mmHg 90%
    05:00 +17°C° 0 mm 4 mps 739 mmHg 89%
    06:00 +17°C° 0 mm 5 mps 739 mmHg 88%
    07:00 +19°C° 0,5 mm 5 mps 738 mmHg 86%
    08:00 +20°C° 0,5 mm 6 mps 737 mmHg 85%
    09:00 +21°C° 0,5 mm 6 mps 737 mmHg 83%
    10:00 +20°C° 0,9 mm 7 mps 737 mmHg 83%
    11:00 +20°C° 0,9 mm 8 mps 736 mmHg 84%
    12:00 +18°C° 0,9 mm 8 mps 736 mmHg 84%
    13:00 +18°C° 0,2 mm 8 mps 737 mmHg 75%
    14:00 +20°C° 0,2 mm 8 mps 737 mmHg 66%
    15:00 +20°C° 0,2 mm 8 mps 737 mmHg 57%
    16:00 +18°C° 0 mm 7 mps 738 mmHg 59%
    17:00 +18°C° 0 mm 7 mps 738 mmHg 61%
    18:00 +17°C° 0 mm 6 mps 738 mmHg 64%
    19:00 +16°C° 0 mm 5 mps 739 mmHg 67%
    20:00 +14°C° 0 mm 4 mps 739 mmHg 69%
    21:00 +13°C° 0 mm 4 mps 739 mmHg 72%
    22:00 +13°C° 0 mm 4 mps 739 mmHg 69%
    23:00 +13°C° 0 mm 5 mps 739 mmHg 67%

    21 Junio, Jueves

    Tiempo Temperatura Precipitaciones Viento Presión Humedad
    00:00 +13°C° 0 mm 5 mps 740 mmHg 64%
    01:00 +13°C° 0 mm 5 mps 740 mmHg 64%
    02:00 +13°C° 0 mm 5 mps 740 mmHg 64%
    03:00 +13°C° 0 mm 5 mps 740 mmHg 64%
    04:00 +13°C° 0 mm 5 mps 740 mmHg 66%
    05:00 +13°C° 0 mm 6 mps 741 mmHg 69%
    06:00 +14°C° 0 mm 6 mps 741 mmHg 71%
    07:00 +15°C° 0 mm 6 mps 741 mmHg 65%
    08:00 +16°C° 0 mm 7 mps 741 mmHg 60%
    09:00 +17°C° 0 mm 7 mps 741 mmHg 54%
    10:00 +18°C° 0 mm 7 mps 741 mmHg 53%
    11:00 +18°C° 0 mm 7 mps 741 mmHg 51%
    12:00 +20°C° 0 mm 7 mps 741 mmHg 50%
    13:00 +20°C° 0 mm 7 mps 741 mmHg 50%
    14:00 +20°C° 0 mm 7 mps 741 mmHg 50%
    15:00 +21°C° 0 mm 7 mps 741 mmHg 50%
    16:00 +20°C° 0 mm 6 mps 741 mmHg 54%
    17:00 +20°C° 0 mm 5 mps 742 mmHg 57%
    18:00 +19°C° 0 mm 4 mps 742 mmHg 61%
    19:00 +18°C° 0 mm 4 mps 742 mmHg 64%
    20:00 +16°C° 0 mm 3 mps 743 mmHg 67%
    21:00 +13°C° 0 mm 3 mps 743 mmHg 71%
    22:00 +12°C° 0 mm 3 mps 743 mmHg 72%
    23:00 +12°C° 0 mm 3 mps 744 mmHg 73%

    22 Junio, Viernes

    Tiempo Temperatura Precipitaciones Viento Presión Humedad
    00:00 +11°C° 0 mm 3 mps 744 mmHg 74%
    01:00 +11°C° 0 mm 3 mps 744 mmHg 75%
    02:00 +10°C° 0 mm 2 mps 745 mmHg 76%
    03:00 +10°C° 0 mm 2 mps 745 mmHg 77%
    04:00 +12°C° 0 mm 2 mps 746 mmHg 75%
    05:00 +13°C° 0 mm 2 mps 746 mmHg 73%
    06:00 +15°C° 0 mm 2 mps 746 mmHg 71%
    07:00 +17°C° 0 mm 2 mps 746 mmHg 66%
    08:00 +18°C° 0 mm 2 mps 747 mmHg 60%
    09:00 +20°C° 0 mm 2 mps 747 mmHg 55%
    10:00 +21°C° 0 mm 2 mps 747 mmHg 53%
    11:00 +23°C° 0 mm 2 mps 747 mmHg 51%
    12:00 +24°C° 0 mm 3 mps 747 mmHg 48%
    13:00 +24°C° 0 mm 3 mps 747 mmHg 49%
    14:00 +25°C° 0 mm 2 mps 747 mmHg 49%
    15:00 +25°C° 0 mm 2 mps 747 mmHg 49%
    16:00 +25°C° 0 mm 2 mps 747 mmHg 54%
    17:00 +25°C° 0 mm 1 mps 747 mmHg 58%
    18:00 +25°C° 0 mm 1 mps 747 mmHg 63%
    19:00 +23°C° 0 mm 1 mps 747 mmHg 69%
    20:00 +21°C° 0 mm 1 mps 747 mmHg 75%
    21:00 +17°C° 0 mm 2 mps 747 mmHg 80%
    22:00 +17°C° 0 mm 2 mps 747 mmHg 83%
    23:00 +16°C° 0 mm 2 mps 747 mmHg 87%

    23 Junio, Sábado

    Tiempo Temperatura Precipitaciones Viento Presión Humedad
    00:00 +16°C° 0 mm 2 mps 747 mmHg 90%
    01:00 +16°C° 0 mm 2 mps 747 mmHg 90%
    02:00 +15°C° 0 mm 2 mps 747 mmHg 91%
    03:00 +15°C° 0 mm 2 mps 747 mmHg 92%
    04:00 +17°C° 0 mm 3 mps 748 mmHg 88%
    05:00 +18°C° 0 mm 3 mps 748 mmHg 84%
    06:00 +19°C° 0 mm 3 mps 748 mmHg 80%
    07:00 +21°C° 0 mm 4 mps 748 mmHg 75%
    08:00 +23°C° 0 mm 4 mps 748 mmHg 71%
    09:00 +25°C° 0 mm 4 mps 748 mmHg 66%
    10:00 +26°C° 0 mm 4 mps 748 mmHg 63%
    11:00 +27°C° 0 mm 5 mps 748 mmHg 60%
    12:00 +28°C° 0 mm 5 mps 748 mmHg 57%
    13:00 +28°C° 0 mm 5 mps 748 mmHg 57%
    14:00 +29°C° 0 mm 5 mps 748 mmHg 58%
    15:00 +29°C° 0 mm 5 mps 747 mmHg 58%
    16:00 +28°C° 0 mm 4 mps 747 mmHg 62%
    17:00 +27°C° 0 mm 4 mps 747 mmHg 66%
    18:00 +27°C° 0 mm 4 mps 747 mmHg 70%
    19:00 +25°C° 0 mm 3 mps 747 mmHg 76%
    20:00 +22°C° 0 mm 3 mps 747 mmHg 81%
    21:00 +20°C° 0 mm 3 mps 747 mmHg 87%
    22:00 +19°C° 0 mm 3 mps 747 mmHg 88%
    23:00 +18°C° 0 mm 3 mps 747 mmHg 90%
    Mostrar más